TimeCST,TemperatureF,Dew PointF,Humidity,Sea Level PressureIn,VisibilityMPH,Wind Direction,Wind SpeedMPH,Gust SpeedMPH,PrecipitationIn,Events,Conditions,WindDirDegrees,DateUTC
12:53 AM,28.9,24.1,82,30.03,10.0,ESE,10.4,-,N/A,,Clear,110,2013-03-07 06:53:00
1:53 AM,28.0,24.1,85,30.02,9.0,ESE,8.1,-,N/A,,Clear,110,2013-03-07 07:53:00
2:53 AM,28.0,24.1,85,30.01,9.0,East,8.1,-,N/A,,Clear,100,2013-03-07 08:53:00
3:53 AM,27.0,23.0,85,30.01,9.0,East,6.9,-,N/A,,Clear,80,2013-03-07 09:53:00
4:53 AM,26.1,23.0,88,30.00,9.0,East,8.1,-,N/A,,Clear,80,2013-03-07 10:53:00
5:53 AM,25.0,21.9,88,30.02,8.0,ENE,6.9,-,N/A,,Clear,70,2013-03-07 11:53:00
6:53 AM,24.1,21.0,88,30.05,8.0,East,8.1,-,N/A,,Clear,80,2013-03-07 12:53:00
7:53 AM,25.0,21.9,88,30.07,8.0,ENE,6.9,-,N/A,,Clear,70,2013-03-07 13:53:00
8:53 AM,28.9,24.1,82,30.07,8.0,ESE,9.2,-,N/A,,Clear,110,2013-03-07 14:53:00
9:53 AM,32.0,25.0,75,30.07,9.0,East,5.8,-,N/A,,Clear,100,2013-03-07 15:53:00
10:53 AM,35.1,25.0,67,30.08,10.0,Variable,4.6,-,N/A,,Clear,0,2013-03-07 16:53:00
11:53 AM,37.9,27.0,65,30.08,10.0,Calm,Calm,-,N/A,,Clear,0,2013-03-07 17:53:00
12:53 PM,42.1,27.0,55,30.06,10.0,Variable,3.5,-,N/A,,Clear,0,2013-03-07 18:53:00
1:53 PM,45.0,28.0,52,30.04,10.0,ESE,4.6,-,N/A,,Clear,120,2013-03-07 19:53:00
2:53 PM,48.0,28.0,46,30.02,10.0,East,6.9,-,N/A,,Clear,100,2013-03-07 20:53:00
3:53 PM,48.9,28.0,44,30.02,10.0,East,10.4,-,N/A,,Clear,90,2013-03-07 21:53:00
4:53 PM,50.0,30.0,46,30.02,10.0,ESE,9.2,-,N/A,,Clear,110,2013-03-07 22:53:00
5:53 PM,48.9,30.0,48,30.04,10.0,East,9.2,-,N/A,,Clear,100,2013-03-07 23:53:00
6:53 PM,39.9,28.9,65,30.07,9.0,ENE,6.9,-,N/A,,Clear,60,2013-03-08 00:53:00
7:53 PM,36.0,28.0,73,30.08,9.0,NE,5.8,-,N/A,,Clear,50,2013-03-08 01:53:00
8:53 PM,34.0,28.0,79,30.08,8.0,NNE,6.9,-,N/A,,Clear,30,2013-03-08 02:53:00
9:53 PM,33.1,27.0,78,30.09,8.0,ENE,5.8,-,N/A,,Clear,60,2013-03-08 03:53:00
10:53 PM,33.1,27.0,78,30.09,8.0,ENE,5.8,-,N/A,,Clear,60,2013-03-08 04:53:00
11:53 PM,32.0,27.0,82,30.08,8.0,NE,6.9,-,N/A,,Clear,50,2013-03-08 05:53:00